Tracking 18032 objects as of 27-March-2017
HD Live streaming from Space Station
objects crossing your sky now

EXPRESS 3A

Track EXPRESS 3A now!
EXPRESS 3A is classified as:


NORAD ID: 26378
Int'l Code: 2000-031A
Perigee: 36,197.1 km
Apogee: 36,243.3 km
Inclination: 7.0 °
Period: 1,457.9 minutes
Semi major axis: 42591 km
RCS: 37.9323 m2 (large)
Launch date: June 24, 2000
Source: Commonwealth of Independent States (former USSR) (CIS)
Launch site: TYURATAM MISSILE AND SPACE COMPLEX (TTMTR)

Data transmission, TV and radio broadcasting, communications, Internet, video-conference, and others; digital format throughout Russia.
Your satellite tracking list
Your tracking list is empty





NASA's NSSDC Master Catalog

Two Line Element Set (TLE):
1 26378U 00031A   17085.79004583 -.00000234 +00000-0 +00000-0 0  9997
2 26378 006.9560 053.2010 0005420 176.8991 009.7993 00.98769679060944
Source of the keplerian elements: AFSPC